Home > Weather > Göttingen > Past weeks

Flag for Germany Past Weather in Göttingen, Lower Saxony, Germany — Yesterday and Last 2 Weeks

Now
79 °F

Scattered clouds.


Feels Like: 80 °F
Forecast: 60 / 80 °F
Wind: 2 mph from North

Location: Kassel / Calden

Current Time: Jul 24, 2016 at 2:57:32 PM

Latest Report: Jul 24, 2016 at 2:20 PM


Visibility: N/A

Pressure: 30.09 "Hg

Humidity: 54%

Dew Point: 61 °F

Location of GöttingenLocation

Past Weather in Göttingen — Graph

°F

Göttingen Temperature Yesterday

Maximum temperature yesterday: 68 °F (at 3:50 PM)
Minimum temperature yesterday: 61 °F (at 9:20 AM)
Average temperature yesterday: 65 °F

High & Low Weather Summary for the Past Weeks

 TemperatureHumidityPressure
High90 °F (Jul 20, 4:50 PM)100% (Jul 13, 6:50 PM)30.27 "Hg (Jul 13, 6:50 PM)
Low52 °F (Jul 14, 7:20 AM)31% (Jul 20, 2:50 PM)29.83 "Hg (Jul 10, 6:20 PM)
Average70 °F66%30.05 "Hg
* Reported Jul 9 1:20 PM — Jul 24 1:20 PM, Göttingen, Weather by CustomWeather, © 2016

Note: Actual official high and low records may vary slightly from our data, if they occured in-between our weather recording intervals... More about our weather records

Advertising

Göttingen Weather History for the Previous 24 Hours

Scroll right to see more
 ConditionsComfort  
Time TempWeatherWind HumidityBarometerVisibility
1:20 PM
Sun, Jul 24
77 °FPassing clouds.3 mph54%30.12 "HgN/A
12:50 PM77 °FPassing clouds.3 mph61%30.12 "HgN/A
12:20 PM75 °FSunny.2 mph61%30.12 "Hg10 mi
11:50 AM72 °FSunny.3 mph69%30.12 "Hg10 mi
11:20 AM72 °FSunny.2 mph73%30.12 "Hg10 mi
10:50 AM70 °FSunny.2 mph73%30.12 "Hg10 mi
10:20 AM68 °FPassing clouds.3 mph78%30.12 "HgN/A
9:50 AM66 °FPassing clouds.3 mph88%30.12 "HgN/A
9:20 AM66 °FSunny.5 mph88%30.12 "Hg10 mi
8:50 AM66 °FSunny.3 mph94%30.12 "Hg10 mi
8:20 AM64 °FSunny.3 mph94%30.09 "Hg10 mi
7:50 AM64 °FSunny.5 mph100%30.09 "Hg10 mi
7:20 AM63 °FSunny.3 mph100%30.09 "Hg10 mi
9:20 PM
Sat, Jul 23
64 °FPartly sunny.5 mph100%30.09 "HgN/A
8:50 PM64 °FPartly sunny.2 mph100%30.09 "HgN/A
8:20 PM64 °FPartly sunny.6 mph100%30.09 "HgN/A
7:50 PM66 °FPartly sunny.6 mph100%30.09 "HgN/A
7:20 PM66 °FSunny.6 mph100%30.09 "Hg10 mi
6:50 PM68 °FPartly sunny.5 mph94%30.09 "HgN/A
6:20 PM68 °FPartly sunny.5 mph94%30.09 "HgN/A
5:50 PM68 °FPartly sunny.5 mph94%30.09 "HgN/A
5:20 PM68 °FPartly sunny.5 mph94%30.09 "HgN/A
4:50 PM68 °FPartly sunny.8 mph94%30.09 "HgN/A
4:20 PM68 °FPartly sunny.7 mph88%30.09 "Hg6 mi
3:50 PM68 °FCloudy.7 mph94%30.09 "Hg5 mi
3:20 PM66 °FCloudy.6 mph100%30.09 "Hg4 mi
2:50 PM66 °FLight rain. Cloudy.7 mph100%30.09 "Hg4 mi
2:20 PM64 °FLight rain. More clouds than sun.5 mph100%30.09 "Hg4 mi
Weather by CustomWeather, © 2016

See weather overviewHow to use our weather pages